Regional Weather Roundup
Issued by NWS

Home | Current Version | Previous Version | Text Only | Print | Product List | Glossary Off
Versions: 1 2 3 4 5 6 7 8 9 10 11 12 13 14 15 16 17 18 19 20 21 22 23 24 25 26 27 28 29 30 31 32 33 34 35 36 37 38 39 40 41 42 43 44 45 46 47 48 49 50

080
ASUS43 KBIS 241310
RWRND

NORTH DAKOTA REGIONAL WEATHER ROUNDUP
NATIONAL WEATHER SERVICE BISMARCK ND
700 AM CST TUE JAN 24 2017

NOTE: "FAIR" INDICATES FEW OR NO CLOUDS BELOW 12,000 FEET WITH NO
SIGNIFICANT WEATHER AND/OR OBSTRUCTIONS TO VISIBILITY.


NDZ001>003-009>011-017-241400-
NORTHWEST NORTH DAKOTA

CITY           SKY/WX    TMP DP  RH WIND       PRES   REMARKS
WILLISTON      CLOUDY    20  15  81 NW9       29.87F WCI   9
MINOT          CLOUDY    24  18  77 W12       29.85R WCI  13
MINOT AFB      CLOUDY    21  17  83 NW12      29.84R WCI   9
$$

NDZ018>021-031>035-040>046-241400-
SOUTHWEST NORTH DAKOTA

CITY           SKY/WX    TMP DP  RH WIND       PRES   REMARKS
BISMARCK       CLOUDY    25  19  78 NW3       29.88R
DICKINSON      CLOUDY    20  17  88 NW8       29.81R WCI  10
GARRISON         N/A     21  17  84 NW8       29.85R WCI  11
HETTINGER ARPT CLOUDY    21  18  88 N13       29.81R WCI   9
$$

NDZ004>008-012>016-024-026-027-054-241400-
NORTHEAST NORTH DAKOTA

CITY           SKY/WX    TMP DP  RH WIND       PRES   REMARKS
GRAND FORKS    CLOUDY    26  20  77 W6        29.87S WCI  19
GRND FRKS AFB  CLOUDY    25  20  80 W6        29.87S WCI  18
DEVILS LAKE    CLOUDY    23  20  88 W13       29.84  WCI  11
$$

NDZ022-023-025-028>030-036>039-047>053-241400-
SOUTHEAST NORTH DAKOTA

CITY           SKY/WX    TMP DP  RH WIND       PRES   REMARKS
FARGO          CLOUDY    30  25  81 NW8       29.89R
JAMESTOWN      CLOUDY    22  19  89 NW10      29.86S WCI  11
$$





USA.gov is the U.S. government's official web portal to all federal, state and local government web resources and services.